Location: Austin
(30.3000°N, 97.7500°W)
Time: 11:22:42
(UTC-05:00)

Terra - Pass Details

Date: 26 May 2023
Orbit: 693 x 698 km, 98.1° (Epoch: 31 May)

Event Time Altitude Azimuth Distance (km) Brightness Sun altitude
Exits shadow 22:19:28 19° 64° (ENE) 1,625 3.5 -21.4°
Drops below altitude 10° 22:22:28 10° 25° (NNE) 2,155 4.5 -21.8°
Sets 22:25:15 0° 8° (N) 3,075 5.6 -22.3°
